{"data":{"norad_id":65890,"epoch":"2026-09-20T07:24:04.976352Z","epoch_age_seconds":122654,"freshness":"FRESH","line1":"1 65890U 25224J   26263.30839093  .00014995  00000+0  45410-3 0  9991","line2":"2 65890  53.1587 186.4869 0001788 120.4942 239.6238 15.34397240 54681","mean_motion":15.3439724,"eccentricity":0.0001788,"inclination_deg":53.1587,"raan_deg":186.4869,"arg_perigee_deg":120.4942,"mean_anomaly_deg":239.6238,"bstar":0.0004541,"rev_number":5468,"period_min":93.847926890171,"perigee_km":461.48829981934,"apogee_km":463.93458722275,"semimajor_km":6840.848443521,"source":"CELESTRAK","updated_at":"2026-09-21T09:00:35.757893Z"}}